Grand Junction, CO

9:05 PM MDT on July 24, 2016 (GMT -0600)
Walker

Weather History for KGJT - May, 2012

Change the Weather History Date:

Friday, May 18, 2012

  Actual Average Record
Temperature  
Mean Temperature 71 °F 62 °F  
Max Temperature 83 °F 77 °F 92 °F (2006)
Min Temperature 59 °F 48 °F 36 °F (1983)
Degree Days  
Heating Degree Days 0 4  
Month to date heating degree days 23 116  
Since 1 July heating degree days 4938 5550  
Cooling Degree Days 6 2  
Month to date cooling degree days 27 16  
Year to date cooling degree days 46 19  
Growing Degree Days 21 (Base 50)    
Moisture  
Dew Point 24 °F    
Average Humidity 23    
Maximum Humidity 36    
Minimum Humidity 10    
Precipitation  
Precipitation 0.00 in 0.03 in 0.44 in (1988)
Month to date precipitation T 0.56  
Year to date precipitation 1.29 3.51  
Snow  
Snow 0.00 in 0.00 in 0.00 in (2015)
Month to date snowfall 0.0 0.1  
Since 1 July snowfall 8.2 19.1  
Snow Depth 0.00 in    
Sea Level Pressure  
Sea Level Pressure 29.51 in    
Wind  
Wind Speed 12 mph (SE)    
Max Wind Speed 35 mph    
Max Gust Speed 43 mph    
Visibility 10 miles    
Events      
T = Trace of Precipitation, MM = Missing Value Source: NWS Daily Summary

Daily Weather History Graph

Daily Weather History Graph

Search for Another Location

Airport or City:

Trip Planner

Search our weather history database for the weather conditions in past years. The results will help you decide how hot, cold, wet, or windy it might be!

Date:

Astronomy

May. 18, 2012 Rise Set
Actual Time 5:58 AM MDT 8:23 PM MDT
Civil Twilight 5:27 AM MDT 8:54 PM MDT
Nautical Twilight 4:49 AM MDT 9:32 PM MDT
Astronomical Twilight 4:08 AM MDT 10:13 PM MDT
Moon 4:28 AM MDT (5/18) 6:35 PM MDT (5/18)
Length of Visible Light 15h 26m
Length of Day
14h 25m
Waning Crescent, 4% of the Moon is Illuminated
May 18
Waning Crescent
May 20
New
May 28
First Quarter
Jun 4
Full
Jun 11
Last Quarter

Hourly Weather History & Observations

Time (MDT) Temp. Dew Point Humidity Pressure Visibility Wind Dir Wind Speed Gust Speed Precip Events Conditions
12:53 AM 66.9 °F 25.0 °F 21% 29.48 in 10.0 mi NNE 10.4 mph - N/A   Clear
1:53 AM 70.0 °F 21.9 °F 16% 29.46 in 10.0 mi East 10.4 mph - N/A   Clear
2:53 AM 68.0 °F 21.9 °F 17% 29.45 in 10.0 mi East 13.8 mph - N/A   Clear
3:53 AM 64.9 °F 27.0 °F 24% 29.45 in 10.0 mi ESE 9.2 mph - N/A   Clear
4:14 AM 66.2 °F 21.2 °F 18% 29.66 in 10.0 mi ESE 12.7 mph - N/A   Clear
4:53 AM 69.1 °F 19.9 °F 15% 29.43 in 10.0 mi SE 17.3 mph - N/A   Clear
5:53 AM 70.0 °F 18.0 °F 14% 29.43 in 10.0 mi SE 13.8 mph - N/A   Clear
6:53 AM 72.0 °F 17.1 °F 12% 29.44 in 10.0 mi ESE 11.5 mph 20.7 mph N/A   Scattered Clouds
7:53 AM 72.0 °F 18.0 °F 13% 29.46 in 10.0 mi South 5.8 mph - N/A   Scattered Clouds
8:53 AM 71.1 °F 19.9 °F 14% 29.48 in 10.0 mi East 8.1 mph - N/A   Scattered Clouds
9:53 AM 73.0 °F 19.9 °F 14% 29.48 in 10.0 mi East 16.1 mph - N/A   Scattered Clouds
10:53 AM 77.0 °F 24.1 °F 14% 29.47 in 10.0 mi Calm Calm - N/A   Clear
11:53 AM 79.0 °F 23.0 °F 13% 29.46 in 10.0 mi SSW 13.8 mph - N/A   Clear
12:53 PM 81.0 °F 19.0 °F 10% 29.44 in 10.0 mi South 19.6 mph 33.4 mph N/A   Clear
1:53 PM 82.0 °F 19.9 °F 10% 29.42 in 10.0 mi SSW 18.4 mph 29.9 mph N/A   Clear
2:53 PM 77.0 °F 23.0 °F 13% 29.44 in 10.0 mi SSW 19.6 mph 32.2 mph N/A   Partly Cloudy
3:53 PM 75.9 °F 21.9 °F 13% 29.45 in 10.0 mi WSW 17.3 mph 24.2 mph N/A   Partly Cloudy
4:53 PM 75.9 °F 19.0 °F 12% 29.43 in 10.0 mi South 8.1 mph - N/A   Partly Cloudy
5:16 PM 73.4 °F 30.2 °F 20% 29.67 in 10.0 mi NW 25.3 mph 31.1 mph N/A   Scattered Clouds
5:53 PM 75.0 °F 28.0 °F 18% 29.47 in 10.0 mi WNW 16.1 mph 35.7 mph N/A   Scattered Clouds
6:53 PM 70.0 °F 32.0 °F 25% 29.53 in 10.0 mi NNW 25.3 mph 32.2 mph N/A   Clear
7:53 PM 66.9 °F 30.0 °F 25% 29.58 in 10.0 mi NW 12.7 mph - N/A   Clear
8:53 PM 64.0 °F 33.1 °F 31% 29.62 in 10.0 mi Calm Calm - N/A   Clear
9:53 PM 63.0 °F 30.9 °F 30% 29.65 in 10.0 mi NNE 5.8 mph - N/A   Scattered Clouds
10:53 PM 62.1 °F 34.0 °F 35% 29.65 in 10.0 mi East 6.9 mph - N/A   Clear
11:53 PM 60.1 °F 34.0 °F 38% 29.66 in 10.0 mi Calm Calm - N/A   Clear